Back to catalog

COSMOS 2557

GLONASS

AliveNavigationMEO
NORAD 52984·PAYLOAD·🇷🇺 Russia

Launched Jul 7, 2022 from Plesetsk Cosmodrome

Loading…

Next Passes (next 24 hours)

TLE

FreshSource: CelesTrak SupGP

Epoch: Sep 12, 2026, 23:59 UTC

1 52984C 20075A   26255.99979167  .00000000  00000+0  00000+0 0  2552
2 52984  64.2415 311.3877 0012611 269.6069 197.1190  2.13102358    15

Track COSMOS 2557 in real time with AllMySat

Download on the App Store